TimePST,TemperatureF,Dew PointF,Humidity,Sea Level PressureIn,VisibilityMPH,Wind Direction,Wind SpeedMPH,Gust SpeedMPH,PrecipitationIn,Events,Conditions,WindDirDegrees,DateUTC
12:53 AM,54.0,30.9,41,30.21,10.0,WNW,4.6,-,N/A,,Clear,290,2013-02-03 08:53:00
1:53 AM,53.1,30.9,43,30.19,10.0,NW,6.9,-,N/A,,Partly Cloudy,310,2013-02-03 09:53:00
2:53 AM,55.9,26.1,32,30.17,10.0,NW,9.2,-,N/A,,Mostly Cloudy,320,2013-02-03 10:53:00
3:53 AM,57.2,24.8,29,30.12,10.0,NNW,9.2,-,N/A,,Overcast,340,2013-02-03 11:53:00
4:53 AM,55.9,27.0,33,30.16,10.0,Variable,6.9,-,N/A,,Overcast,0,2013-02-03 12:53:00
5:53 AM,57.0,27.0,32,30.17,10.0,North,3.5,-,N/A,,Overcast,10,2013-02-03 13:53:00
6:53 AM,57.0,33.1,40,30.18,10.0,NW,6.9,-,N/A,,Overcast,310,2013-02-03 14:53:00
7:53 AM,57.9,35.1,42,30.18,10.0,NW,12.7,-,N/A,,Overcast,320,2013-02-03 15:53:00
8:53 AM,57.9,35.1,42,30.18,10.0,NNW,11.5,-,N/A,,Overcast,330,2013-02-03 16:53:00
9:53 AM,60.1,35.1,39,30.18,10.0,NNE,10.4,-,N/A,,Mostly Cloudy,20,2013-02-03 17:53:00
10:53 AM,63.0,34.0,34,30.16,10.0,North,6.9,-,N/A,,Partly Cloudy,360,2013-02-03 18:53:00
11:53 AM,66.0,33.1,29,30.12,10.0,Variable,5.8,-,N/A,,Partly Cloudy,0,2013-02-03 19:53:00
12:53 PM,66.0,32.0,28,30.08,10.0,Calm,Calm,-,N/A,,Clear,0,2013-02-03 20:53:00
1:53 PM,66.0,30.9,27,30.06,10.0,Calm,Calm,-,N/A,,Clear,0,2013-02-03 21:53:00
2:53 PM,66.0,30.0,26,30.05,10.0,South,3.5,-,N/A,,Clear,190,2013-02-03 22:53:00
3:53 PM,66.9,30.0,25,30.05,10.0,East,3.5,-,N/A,,Clear,100,2013-02-03 23:53:00
4:53 PM,64.9,30.0,27,30.05,10.0,ESE,4.6,-,N/A,,Clear,120,2013-02-04 00:53:00
5:53 PM,63.0,30.0,29,30.07,10.0,SSW,3.5,-,N/A,,Clear,210,2013-02-04 01:53:00
6:53 PM,59.0,32.0,36,30.08,10.0,Calm,Calm,-,N/A,,Clear,0,2013-02-04 02:53:00
7:53 PM,55.9,33.1,42,30.08,10.0,Calm,Calm,-,N/A,,Clear,0,2013-02-04 03:53:00
8:53 PM,54.0,33.1,45,30.09,10.0,NNW,5.8,-,N/A,,Clear,330,2013-02-04 04:53:00
9:53 PM,52.0,33.1,49,30.10,10.0,NW,5.8,-,N/A,,Clear,310,2013-02-04 05:53:00
10:53 PM,52.0,32.0,47,30.10,10.0,NNW,8.1,-,N/A,,Clear,330,2013-02-04 06:53:00
11:53 PM,51.1,30.9,46,30.12,10.0,Calm,Calm,-,N/A,,Clear,0,2013-02-04 07:53:00